Home   Weather   Panama City   Past weeks

Flag for USA Past Weather in Panama City, Florida, USA — Yesterday and Last 2 Weeks

Now
73 °F

Scattered clouds.


Feels Like: 69 °F
Forecast: 62 / 73 °F
Wind: 10 mph from South

Location: Tyndall Air Force Base

Current Time: Jan 19, 2017 at 11:18:59 am

Latest Report: Jan 19, 2017 at 9:56 am


Visibility: 10 mi

Pressure: 30.05 "Hg

Humidity: 96%

Dew Point: 72 °F

Location of Panama CityLocation

Past Weather in Panama City — Graph

°F

Panama City Temperature Yesterday

Maximum temperature yesterday: 76 °F (at 11:56 am)
Minimum temperature yesterday: 61 °F (at 9:06 pm)
Average temperature yesterday: 66 °F

High & Low Weather Summary for the Past Weeks

 TemperatureHumidityPressure
High78 °F (Jan 14, 12:56 pm)100% (Jan 7, 12:36 am)30.73 "Hg (Jan 7, 12:36 am)
Low27 °F (Jan 8, 6:56 am)22% (Jan 8, 2:56 pm)29.88 "Hg (Jan 6, 2:56 pm)
Average57 °F82%30.25 "Hg
* Reported Jan 4 9:39 am — Jan 19 9:56 am, Panama City, Weather by CustomWeather, © 2017

Note: Actual official high and low records may vary slightly from our data, if they occured in-between our weather recording intervals... More about our weather records

Advertising

Panama City Weather History for the Previous 24 Hours

Scroll right to see more
 ConditionsComfort  
Time TempWeatherWind HumidityBarometerVisibility
9:56 am
Thu, Jan 19
73 °FScattered clouds.10 mph96%30.05 "Hg10 mi
8:56 am70 °FScattered clouds.9 mph100%30.05 "Hg10 mi
8:05 am64 °FPassing clouds.3 mph100%30.03 "Hg10 mi
7:41 am64 °FFog.No wind100%30.03 "Hg0 mi
7:16 am63 °FFog.No wind100%30.03 "Hg0 mi
6:56 am62 °FFog.No wind100%30.04 "Hg0 mi
5:56 am63 °FFog.No wind100%30.04 "Hg0 mi
4:56 am63 °FFog.No wind100%30.04 "Hg0 mi
3:56 am62 °FFog.No wind100%30.05 "Hg0 mi
2:56 am62 °FFog.No wind100%30.06 "Hg0 mi
2:41 am63 °FFog.No wind100%30.05 "Hg0 mi
2:36 am63 °FFog.No wind100%30.05 "Hg0 mi
1:56 am63 °FFog.No wind100%30.07 "Hg1 mi
1:16 am64 °FFog.No wind100%30.06 "Hg0 mi
1:06 am64 °FFog.No wind100%30.06 "Hg0 mi
12:56 am64 °FFog.No wind100%30.07 "Hg0 mi
12:31 am64 °FFog.No wind100%30.07 "Hg1 mi
12:21 am64 °FFog.No wind100%30.07 "Hg1 mi
12:01 am64 °FFog.No wind100%30.07 "Hg1 mi
11:31 pm
Wed, Jan 18
64 °FFog.No wind100%30.09 "Hg0 mi
11:01 pm63 °FFog.3 mph100%30.10 "Hg0 mi
10:36 pm61 °FFog.No wind100%30.10 "Hg1 mi
10:06 pm61 °FFog.No wind100%30.11 "Hg1 mi
9:56 pm62 °FFog.No wind100%30.12 "Hg0 mi
9:36 pm61 °FFog.No wind100%30.12 "Hg0 mi
9:21 pm61 °FFog.No wind100%30.11 "Hg1 mi
9:06 pm61 °FFog.No wind100%30.11 "Hg1 mi
8:41 pm63 °FFog.No wind100%30.11 "Hg2 mi
8:36 pm63 °FFog.No wind100%30.11 "Hg2 mi
8:21 pm63 °FFog.No wind100%30.11 "Hg1 mi
7:56 pm63 °FFog.No wind99%30.11 "Hg3 mi
7:41 pm64 °FFog.No wind100%30.11 "Hg4 mi
7:31 pm64 °FClear.3 mph100%30.11 "Hg8 mi
7:11 pm66 °FClear.No wind94%30.11 "Hg10 mi
7:01 pm66 °FClear.5 mph94%30.11 "Hg10 mi
6:56 pm65 °FClear.5 mph98%30.12 "Hg10 mi
5:56 pm66 °FClear.3 mph97%30.11 "Hg10 mi
4:56 pm68 °FClear.6 mph94%30.10 "Hg10 mi
3:56 pm71 °FSunny.6 mph85%30.11 "Hg10 mi
2:56 pm75 °FSunny.7 mph76%30.10 "Hg10 mi
1:56 pm75 °FSunny.7 mph75%30.12 "Hg10 mi
12:56 pm75 °FScattered clouds.9 mph72%30.13 "Hg10 mi
11:56 am76 °FSunny.7 mph70%30.16 "Hg10 mi
Weather by CustomWeather, © 2017

See weather overviewHow to use our weather pages